sat.trackr.live / text

‹ back to catalog

STARLINK-34557

NORAD 64726 · 2025-144C

PAYLOAD ACTIVE UNKNOWN

§ Identity

Operator
Country
US
Launch date
2025-07-02
Launch site
AFETR
Launch vehicle
Mass (kg)
RCS (m²)

Purposes: comms

External: N2YO · Heavens-Above · Gunter

§ Orbital elements

Epoch: 2026-05-24T20:29:37.004064Z

Period
94.11 min
Inclination
53.1588°
Eccentricity
0.0001144
Mean motion
15.30199999 rev/d
Perigee alt
474.4 km
Apogee alt
476.0 km
Semi-major
6,853.4 km
B*
5.1896e-4
RAAN
187.2186°
Arg perigee
80.7233°
Mean anomaly
279.3897°
Rev number
5,137

§ Raw data

STARLINK-345571 64726U 25144C   26144.85390051  .00015042  00000+0  51896-3 0  99922 64726  53.1588 187.2186 0001144  80.7233 279.3897 15.30199999 51379

JSON: /api/v1/satellites/64726 · /tle

For live sub-satellite position, see the globe view (requires WebGL).

§ Visibility from observer

Set your observer location to see the next 7 days of passes ≥ 10°. The values pass through the URL so the page stays shareable.

No JS? Fill the form by hand. The geolocation button needs JavaScript.